Location: Observatoire
(46.1952°N, 5.3391°E)
Time: 22:12:02
(UTC+01:00)

Vanguard 2 - All Passes

Search period start: 17 February 2026 00:00
Search period end: 27 February 2026 00:00
Orbit: 553 x 2897 km, 32.9° (Epoch: 17 February)

Date Brightness Start Highest point End Pass type
(mag) Time Alt. Az. Time Alt. Az. Time Alt. Az.
17 Feb - 07:24:58 10° SSW 07:26:50 12° S 07:28:34 10° SSE daylight
17 Feb - 09:32:02 10° SSW 09:33:44 12° S 09:35:26 10° SSE daylight
18 Feb - 07:36:15 10° SSW 07:38:36 14° S 07:40:45 10° SE daylight
18 Feb - 09:44:26 10° SSW 09:45:28 11° S 09:46:31 10° S daylight
19 Feb - 05:41:07 10° S 05:43:15 12° S 05:45:08 10° SSE visible
19 Feb - 07:47:47 10° SW 07:50:21 15° S 07:52:40 10° SSE daylight
20 Feb - 05:51:46 10° SSW 05:55:03 15° S 05:57:47 10° SE visible
20 Feb - 07:59:30 10° SW 08:02:05 15° S 08:04:26 10° SSE daylight
21 Feb - 03:57:25 10° S 03:59:17 11° SSE 04:00:59 10° SSE visible
21 Feb - 06:02:54 10° SW 06:06:51 17° S 06:10:01 10° SE visible
21 Feb - 08:11:24 10° SW 08:13:49 14° SSW 08:16:01 10° SSE daylight
22 Feb - 04:06:58 10° SSW 04:11:07 15° SSE 04:14:30 10° SE visible
22 Feb - 06:14:17 10° SW 06:18:37 19° S 06:22:02 10° SE visible
22 Feb - 08:23:31 10° SW 08:25:30 13° SSW 08:27:21 10° S daylight
23 Feb - 04:17:31 10° SSW 04:22:56 18° S 04:27:04 10° SE visible
23 Feb - 06:25:50 10° SW 06:30:23 20° S 06:33:55 10° SE visible
23 Feb - 08:36:08 10° SW 08:37:10 11° SSW 08:38:09 10° S daylight
24 Feb - 02:22:44 10° S 02:26:39 13° SSE 02:30:00 10° SE visible
24 Feb - 04:28:30 10° SW 04:34:45 21° S 04:39:19 10° SE visible
24 Feb - 06:37:31 10° SW 06:42:08 20° S 06:45:42 10° SE visible
25 Feb - 02:32:13 10° SSW 02:38:28 17° SSE 02:43:20 10° SE visible
25 Feb - 04:39:43 10° SW 04:46:34 24° S 04:51:23 10° SE visible
25 Feb - 06:49:19 10° WSW 06:53:50 20° SSW 06:57:20 10° SSE visible
26 Feb - 02:42:32 10° SSW 02:50:16 21° SSE 02:55:58 10° ESE visible
26 Feb - 04:51:08 10° SW 04:58:21 27° S 05:03:19 10° SE visible
26 Feb - 07:01:14 10° WSW 07:05:30 18° SSW 07:08:52 10° SSE daylight
